Regional Weather Roundup
Issued by NWS

Home | Current Version | Previous Version | Graphics & Text | Print | Product List | Glossary On
Versions: 1 2 3 4 5 6 7 8 9 10 11 12 13 14 15 16 17 18 19 20 21 22 23 24 25 26 27 28 29 30 31 32 33 34 35 36 37 38 39 40 41 42 43 44 45 46 47 48 49 50
000
ASUS45 KBOI 290210
RWRID

IDAHO REGIONAL WEATHER ROUNDUP
NATIONAL WEATHER SERVICE BOISE ID
800 PM MDT FRI AUG 28 2015

NOTE: "FAIR" INDICATES FEW OR NO CLOUDS BELOW 12000 FEET
WITH NO SIGNIFICANT WEATHER AND/OR OBSTRUCTIONS TO VISIBILITY

IDZ012-014-290300-
SOUTHWEST IDAHO


CITY           SKY/WX    TMP DP  RH WIND       PRES   REMARKS
BOISE          CLOUDY    85  40  20 N6        29.87F
CALDWELL         N/A     82  45  26 W6        29.89F
MOUNTAIN HOME  PTCLDY    87  38  17 NW10      29.88F
$$

IDZ016-017-290300-
SOUTHCENTRAL IDAHO


CITY           SKY/WX    TMP DP  RH WIND       PRES   REMARKS
JEROME         CLOUDY    84  43  23 E6        29.96F
TWIN FALLS     CLOUDY    89  38  16 VRB6      29.97F
$$

IDZ019>023-290300-
SOUTHEAST IDAHO


CITY           SKY/WX    TMP DP  RH WIND       PRES   REMARKS
IDAHO FALLS    MOCLDY    82  42  24 S7        30.07F
POCATELLO      CLEAR     79  44  28 E7        30.04F
REXBURG        PTCLDY    80  43  26 S5        30.08F
$$

IDZ006-010-011-018-031-032-290300-
CENTRAL IDAHO MOUNTAINS


CITY           SKY/WX    TMP DP  RH WIND       PRES   REMARKS
MCCALL         CLOUDY    72  40  31 CALM      30.05F
HAILEY         MOCLDY    73  48  40 CALM      30.09S
STANLEY          N/A     74  36  25 CALM      30.18S
SALMON         CLOUDY    77  43  29 N10       29.96S
CHALLIS        MOCLDY    82  34  17 SW5       30.04S
$$

IDZ002-004-006-007-026-290300-
NORTHERN IDAHO


CITY           SKY/WX    TMP DP  RH WIND       PRES   REMARKS
LEWISTON       CLOUDY    83  43  24 E8        29.83F
LOWELL           N/A     68  58  70 VRB3      29.92S
COEUR D`ALENE  CLOUDY    75  46  35 CALM      29.92S
MULLAN PASS    CLOUDY    59  40  49 S8        30.13F HAZE
$$



USA.gov is the U.S. government's official web portal to all federal, state and local government web resources and services.